Tracking 19562 objects as of 25-Mar-2019
HD Live streaming from Space Station
objects crossing your sky now

DIWATA 2B

Track DIWATA 2B now!
10-day predictions
DIWATA 2B is classified as:


NORAD ID: 43678
Int'l Code: 2018-084H
Perigee: 594.2 km
Apogee: 606.4 km
Inclination: 97.8 °
Period: 96.5 minutes
Semi major axis: 6971 km
RCS: Unknown
Launch date: October 29, 2018
Source: Philippines (Republic of the Philippines) (RP)
Launch site: TANEGASHIMA SPACE CENTER (TNSTA)

Uplink (MHz): 437.500
Downlink (MHz): 145.900
Beacon (MHz): 145.900
Mode: FM APRS Digipeater CW
Call sign: D1W2PH
Status: Active

aabbcc
Your satellite tracking list
Your tracking list is empty




NASA's NSSDC Master Catalog

Two Line Element Set (TLE):
1 43678U 18084H   19084.47377667  .00000056  00000-0  11241-4 0  9992
2 43678  97.8400 199.1440 0008783 218.8731 141.1866 14.91533125 21949
Source of the keplerian elements: AFSPC